Weather History for Cloquet, MN

Change the Weather History Date:

Monday, June 3, 2013

  Actual Average Record
Temperature  
Mean Temperature 48 °F -  
Max Temperature 62 °F 64 °F 78 °F (2011)
Min Temperature 35 °F 42 °F 33 °F (1998)
Degree Days  
Heating Degree Days 16    
Moisture  
Dew Point 30 °F    
Average Humidity 48    
Maximum Humidity 87    
Minimum Humidity 25    
Precipitation  
Precipitation 0.00 in - - ()
Sea Level Pressure  
Sea Level Pressure 30.06 in    
Wind  
Wind Speed 4 mph (ENE)    
Max Wind Speed 9 mph    
Max Gust Speed -    
Visibility 10 miles    
Events      
Averages and records for this station are not official NWS values.
T = Trace of Precipitation, MM = Missing Value Source: NWS Daily Summary

Daily Weather History Graph

Daily Weather History Graph

Search for Another Location

Airport:

Trip Planner

Search our weather history database for the weather conditions in past years. The results will help you decide how hot, cold, wet, or windy it might be!

Date:

Astronomy

Jun. 03, 2013 Rise Set
Actual Time 5:18 AM CDT 8:58 PM CDT
Civil Twilight 4:40 AM CDT 9:36 PM CDT
Nautical Twilight 3:48 AM CDT 10:28 PM CDT
Astronomical Twilight 2:38 AM CDT 11:39 PM CDT
Moon 2:33 AM CDT (6/3) 4:15 PM CDT (6/3)
Length of Visible Light 16h 56m
Length of Day
15h 39m
Waning Crescent, 22% of the Moon is Illuminated
Jun 3
Waning Crescent
Jun 8
New
Jun 16
First Quarter
Jun 23
Full
Jun 29
Last Quarter

Hourly Weather History & Observations

Time (CDT) Temp. Windchill Dew Point Humidity Pressure Visibility Wind Dir Wind Speed Gust Speed Precip Events Conditions
12:16 AM 48.2 °F - 33.8 °F 58% 30.02 in 10.0 mi NNE 6.9 mph - N/A   Clear
12:36 AM 46.4 °F - 35.6 °F 66% 30.03 in 10.0 mi Calm Calm - N/A   Clear
12:55 AM 46.4 °F - 33.8 °F 62% 30.03 in 10.0 mi Calm Calm - N/A   Clear
1:16 AM 42.8 °F 41.1 °F 33.8 °F 70% 30.03 in 10.0 mi NNW 3.5 mph - N/A   Clear
1:36 AM 41.0 °F 39.0 °F 35.6 °F 81% 30.03 in 10.0 mi NW 3.5 mph - N/A   Clear
1:55 AM 39.2 °F - 35.6 °F 87% 30.03 in 10.0 mi Calm Calm - N/A   Clear
2:16 AM 39.2 °F - 35.6 °F 87% 30.04 in 10.0 mi Calm Calm - N/A   Clear
2:36 AM 39.2 °F 37.0 °F 33.8 °F 81% 30.03 in 10.0 mi NW 3.5 mph - N/A   Clear
2:56 AM 37.4 °F 34.9 °F 33.8 °F 87% 30.03 in 10.0 mi NW 3.5 mph - N/A   Clear
3:16 AM 37.4 °F 34.9 °F 33.8 °F 87% 30.03 in 10.0 mi NW 3.5 mph - N/A   Clear
3:36 AM 37.4 °F 34.9 °F 33.8 °F 87% 30.03 in 10.0 mi NW 3.5 mph - N/A   Clear
3:56 AM 37.4 °F 34.9 °F 32.0 °F 81% 30.03 in 10.0 mi NW 3.5 mph - N/A   Clear
4:16 AM 35.6 °F 32.8 °F 32.0 °F 87% 30.03 in 10.0 mi NNW 3.5 mph - N/A   Clear
4:36 AM 35.6 °F 32.8 °F 32.0 °F 87% 30.03 in 10.0 mi NNW 3.5 mph - N/A   Clear
4:56 AM 35.6 °F 30.7 °F 30.2 °F 81% 30.03 in 10.0 mi NNW 5.8 mph - N/A   Clear
5:16 AM 35.6 °F 32.8 °F 30.2 °F 81% 30.04 in 10.0 mi NW 3.5 mph - N/A   Clear
5:36 AM 35.6 °F 32.8 °F 30.2 °F 81% 30.04 in 10.0 mi NW 3.5 mph - N/A   Clear
5:55 AM 35.6 °F 30.7 °F 30.2 °F 81% 30.05 in 10.0 mi NNW 5.8 mph - N/A   Clear
6:16 AM 37.4 °F 34.9 °F 33.8 °F 87% 30.05 in 10.0 mi NW 3.5 mph - N/A   Clear
6:36 AM 41.0 °F 39.0 °F 35.6 °F 81% 30.06 in 10.0 mi ESE 3.5 mph - N/A   Clear
6:55 AM 42.8 °F - 35.6 °F 76% 30.06 in 10.0 mi Calm Calm - N/A   Clear
7:16 AM 46.4 °F - 35.6 °F 66% 30.06 in 10.0 mi Calm Calm - N/A   Clear
7:36 AM 46.4 °F 44.3 °F 35.6 °F 66% 30.06 in 10.0 mi ESE 4.6 mph - N/A   Clear
7:55 AM 48.2 °F - 33.8 °F 58% 30.08 in 10.0 mi Calm Calm - N/A   Clear
8:16 AM 50.0 °F - 33.8 °F 54% 30.08 in 10.0 mi Calm Calm - N/A   Clear
8:36 AM 51.8 °F - 35.6 °F 54% 30.08 in 10.0 mi East 4.6 mph - N/A   Clear
8:56 AM 51.8 °F - 35.6 °F 54% 30.08 in 10.0 mi ESE 4.6 mph - N/A   Clear
9:16 AM 53.6 °F - 35.6 °F 51% 30.08 in 10.0 mi Calm Calm - N/A   Clear
9:36 AM 55.4 °F - 35.6 °F 47% 30.09 in 10.0 mi Calm Calm - N/A   Clear
9:55 AM 55.4 °F - 33.8 °F 44% 30.09 in 10.0 mi Calm Calm - N/A   Clear
10:16 AM 57.2 °F - 33.8 °F 41% 30.08 in 10.0 mi SE 4.6 mph - N/A   Clear
10:36 AM 57.2 °F - 32.0 °F 38% 30.08 in 10.0 mi Calm Calm - N/A   Clear
10:55 AM 59.0 °F - 30.2 °F 34% 30.08 in 10.0 mi ENE 8.1 mph - N/A   Clear
11:16 AM 57.2 °F - 26.6 °F 31% 30.09 in 10.0 mi East 5.8 mph - N/A   Clear
11:36 AM 59.0 °F - 30.2 °F 34% 30.09 in 10.0 mi South 4.6 mph - N/A   Clear
11:56 AM 59.0 °F - 30.2 °F 34% 30.08 in 10.0 mi ENE 8.1 mph - N/A   Clear
12:16 PM 60.8 °F - 28.4 °F 29% 30.08 in 10.0 mi NE 3.5 mph - N/A   Clear
12:36 PM 60.8 °F - 28.4 °F 29% 30.07 in 10.0 mi Calm Calm - N/A   Clear
12:56 PM 60.8 °F - 26.6 °F 27% 30.07 in 10.0 mi Calm Calm - N/A   Clear
1:16 PM 62.6 °F - 30.2 °F 30% 30.07 in 10.0 mi ENE 5.8 mph - N/A   Clear
1:36 PM 62.6 °F - 30.2 °F 30% 30.07 in 10.0 mi East 9.2 mph - N/A   Clear
1:56 PM 62.6 °F - 28.4 °F 27% 30.07 in 10.0 mi SE 4.6 mph - N/A   Clear
2:16 PM 62.6 °F - 30.2 °F 30% 30.07 in 10.0 mi ESE 5.8 mph - N/A   Clear
2:35 PM 62.6 °F - 28.4 °F 27% 30.06 in 10.0 mi East 5.8 mph - N/A   Clear
2:56 PM 62.6 °F - 30.2 °F 30% 30.06 in 10.0 mi East 9.2 mph - N/A   Clear
3:16 PM 62.6 °F - 30.2 °F 30% 30.05 in 10.0 mi ESE 8.1 mph - N/A   Clear
3:35 PM 62.6 °F - 28.4 °F 27% 30.05 in 10.0 mi SE 5.8 mph - N/A   Clear
3:56 PM 62.6 °F - 28.4 °F 27% 30.04 in 10.0 mi ESE 4.6 mph - N/A   Clear
4:16 PM 62.6 °F - 26.6 °F 26% 30.05 in 10.0 mi East 4.6 mph - N/A   Clear
4:35 PM 62.6 °F - 28.4 °F 27% 30.05 in 10.0 mi ESE 4.6 mph - N/A   Clear
4:56 PM 62.6 °F - 28.4 °F 27% 30.04 in 10.0 mi ESE 8.1 mph - N/A   Clear
5:16 PM 60.8 °F - 28.4 °F 29% 30.04 in 10.0 mi ESE 8.1 mph - N/A   Clear
5:35 PM 60.8 °F - 24.8 °F 25% 30.04 in 10.0 mi ESE 8.1 mph - N/A   Clear
5:56 PM 60.8 °F - 26.6 °F 27% 30.03 in 10.0 mi East 8.1 mph - N/A   Clear
6:16 PM 60.8 °F - 24.8 °F 25% 30.03 in 10.0 mi East 8.1 mph - N/A   Clear
6:35 PM 60.8 °F - 26.6 °F 27% 30.02 in 10.0 mi East 6.9 mph - N/A   Clear
6:56 PM 59.0 °F - 26.6 °F 29% 30.03 in 10.0 mi East 8.1 mph - N/A   Clear
7:16 PM 57.2 °F - 26.6 °F 31% 30.03 in 10.0 mi East 5.8 mph - N/A   Clear
7:35 PM 57.2 °F - 24.8 °F 29% 30.06 in 10.0 mi Calm Calm - N/A   Clear
7:56 PM 57.2 °F - 24.8 °F 29% 30.06 in 10.0 mi Calm Calm - N/A   Clear
8:16 PM 57.2 °F - 28.4 °F 33% 30.08 in 10.0 mi Calm Calm - N/A   Scattered Clouds
8:35 PM 55.4 °F - 26.6 °F 33% 30.08 in 10.0 mi East 3.5 mph - N/A   Mostly Cloudy
8:56 PM 55.4 °F - 26.6 °F 33% 30.08 in 10.0 mi East 4.6 mph - N/A   Mostly Cloudy
9:16 PM 53.6 °F - 24.8 °F 33% 30.08 in 10.0 mi ENE 3.5 mph - N/A   Mostly Cloudy
9:35 PM 53.6 °F - 23.0 °F 30% 30.08 in 10.0 mi ESE 4.6 mph - N/A   Mostly Cloudy
9:56 PM 53.6 °F - 24.8 °F 33% 30.09 in 10.0 mi East 3.5 mph - N/A   Overcast
10:16 PM 53.6 °F - 26.6 °F 35% 30.10 in 10.0 mi East 3.5 mph - N/A   Overcast
10:36 PM 51.8 °F - 28.4 °F 41% 30.09 in 10.0 mi East 3.5 mph - N/A   Overcast
10:56 PM 51.8 °F - 28.4 °F 41% 30.10 in 10.0 mi East 4.6 mph - N/A   Mostly Cloudy
11:16 PM 53.6 °F - 26.6 °F 35% 30.10 in 10.0 mi ENE 4.6 mph - N/A   Scattered Clouds
11:36 PM 53.6 °F - 24.8 °F 33% 30.10 in 10.0 mi ESE 3.5 mph - N/A   Mostly Cloudy
11:56 PM 53.6 °F - 24.8 °F 33% 30.10 in 10.0 mi East 3.5 mph - N/A   Mostly Cloudy